TimeEDT,TemperatureF,Dew PointF,Humidity,Sea Level PressureIn,VisibilityMPH,Wind Direction,Wind SpeedMPH,Gust SpeedMPH,PrecipitationIn,Events,Conditions,WindDirDegrees,DateUTC
12:15 AM,55.4,55.4,100,30.28,10.0,SSW,6.9,-,N/A,,Overcast,210,2013-10-31 04:15:00
12:35 AM,55.4,55.4,100,30.27,10.0,SW,6.9,-,N/A,,Mostly Cloudy,230,2013-10-31 04:35:00
12:55 AM,55.4,55.4,100,30.27,10.0,South,3.5,-,N/A,,Overcast,180,2013-10-31 04:55:00
1:15 AM,55.4,55.4,100,30.27,10.0,SSW,5.8,-,N/A,,Overcast,210,2013-10-31 05:15:00
1:35 AM,55.4,55.4,100,30.27,10.0,SW,6.9,-,N/A,,Overcast,220,2013-10-31 05:35:00
1:55 AM,57.2,53.6,88,30.26,10.0,SW,9.2,-,N/A,,Scattered Clouds,220,2013-10-31 05:55:00
2:15 AM,57.2,53.6,88,30.27,10.0,SSW,10.4,18.4,N/A,,Scattered Clouds,210,2013-10-31 06:15:00
2:35 AM,57.2,53.6,88,30.26,10.0,SSW,10.4,-,N/A,,Mostly Cloudy,210,2013-10-31 06:35:00
2:55 AM,57.2,53.6,88,30.26,10.0,SW,11.5,16.1,N/A,,Overcast,220,2013-10-31 06:55:00
3:15 AM,57.2,53.6,88,30.25,10.0,SW,11.5,-,N/A,,Overcast,220,2013-10-31 07:15:00
3:35 AM,57.2,53.6,88,30.25,10.0,SW,10.4,-,N/A,,Overcast,230,2013-10-31 07:35:00
3:55 AM,57.2,53.6,88,30.24,10.0,SSW,9.2,-,N/A,,Mostly Cloudy,210,2013-10-31 07:55:00
4:15 AM,57.2,53.6,88,30.23,10.0,SW,10.4,-,N/A,,Mostly Cloudy,220,2013-10-31 08:15:00
4:35 AM,57.2,53.6,88,30.22,10.0,SW,10.4,17.3,N/A,,Scattered Clouds,220,2013-10-31 08:35:00
4:55 AM,57.2,53.6,88,30.22,10.0,SW,10.4,18.4,N/A,,Clear,220,2013-10-31 08:55:00
5:15 AM,57.2,53.6,88,30.22,10.0,SW,10.4,16.1,N/A,,Clear,230,2013-10-31 09:15:00
5:35 AM,57.2,53.6,88,30.22,10.0,WSW,13.8,19.6,N/A,,Scattered Clouds,240,2013-10-31 09:35:00
5:55 AM,57.2,53.6,88,30.23,10.0,SW,16.1,20.7,N/A,,Overcast,230,2013-10-31 09:55:00
6:15 AM,57.2,53.6,88,30.23,10.0,WSW,15.0,-,N/A,,Overcast,240,2013-10-31 10:15:00
6:35 AM,57.2,53.6,88,30.22,10.0,WSW,12.7,20.7,N/A,,Mostly Cloudy,240,2013-10-31 10:35:00
6:55 AM,57.2,51.8,82,30.21,10.0,SW,13.8,20.7,N/A,,Mostly Cloudy,230,2013-10-31 10:55:00
7:15 AM,57.2,51.8,82,30.21,10.0,SW,9.2,17.3,N/A,,Mostly Cloudy,220,2013-10-31 11:15:00
7:35 AM,57.2,51.8,82,30.21,10.0,SSW,11.5,20.7,N/A,,Overcast,210,2013-10-31 11:35:00
7:55 AM,57.2,53.6,88,30.21,10.0,SSW,11.5,24.2,N/A,,Mostly Cloudy,210,2013-10-31 11:55:00
8:15 AM,57.2,53.6,88,30.21,10.0,SSW,15.0,23.0,N/A,,Scattered Clouds,210,2013-10-31 12:15:00
8:35 AM,57.2,51.8,82,30.20,10.0,SSW,11.5,19.6,N/A,,Clear,210,2013-10-31 12:35:00
8:55 AM,57.2,51.8,82,30.21,10.0,SW,10.4,18.4,N/A,,Clear,220,2013-10-31 12:55:00
9:15 AM,57.2,51.8,82,30.21,10.0,SSW,9.2,-,N/A,,Clear,200,2013-10-31 13:15:00
9:35 AM,57.2,51.8,82,30.20,10.0,SSW,12.7,-,N/A,,Scattered Clouds,200,2013-10-31 13:35:00
9:55 AM,57.2,51.8,82,30.20,10.0,SSW,11.5,21.9,N/A,,Scattered Clouds,200,2013-10-31 13:55:00
10:15 AM,57.2,51.8,82,30.19,10.0,SSW,10.4,20.7,N/A,,Clear,210,2013-10-31 14:15:00
10:35 AM,57.2,51.8,82,30.17,10.0,South,11.5,20.7,N/A,,Clear,190,2013-10-31 14:35:00
10:55 AM,57.2,51.8,82,30.17,10.0,South,9.2,16.1,N/A,,Clear,190,2013-10-31 14:55:00
11:15 AM,57.2,53.6,88,30.17,10.0,South,9.2,-,N/A,,Scattered Clouds,180,2013-10-31 15:15:00
11:35 AM,57.2,53.6,88,30.16,10.0,South,9.2,-,N/A,,Scattered Clouds,180,2013-10-31 15:35:00
11:55 AM,57.2,53.6,88,30.15,10.0,South,12.7,17.3,N/A,,Clear,180,2013-10-31 15:55:00
12:15 PM,57.2,53.6,88,30.15,10.0,South,12.7,17.3,N/A,,Scattered Clouds,180,2013-10-31 16:15:00
12:35 PM,57.2,53.6,88,30.14,10.0,South,16.1,20.7,N/A,,Clear,190,2013-10-31 16:35:00
12:55 PM,57.2,53.6,88,30.13,10.0,South,10.4,18.4,N/A,,Scattered Clouds,180,2013-10-31 16:55:00
1:15 PM,57.2,53.6,88,30.12,10.0,South,11.5,18.4,N/A,,Scattered Clouds,180,2013-10-31 17:15:00
1:35 PM,57.2,53.6,88,30.10,10.0,South,10.4,20.7,N/A,,Mostly Cloudy,180,2013-10-31 17:35:00
1:55 PM,57.2,53.6,88,30.09,10.0,South,10.4,20.7,N/A,,Mostly Cloudy,180,2013-10-31 17:55:00
2:15 PM,57.2,53.6,88,30.07,10.0,SSW,10.4,20.7,N/A,,Mostly Cloudy,200,2013-10-31 18:15:00
2:35 PM,57.2,53.6,88,30.07,10.0,South,11.5,20.7,N/A,,Mostly Cloudy,190,2013-10-31 18:35:00
2:55 PM,57.2,53.6,88,30.06,10.0,South,11.5,19.6,N/A,,Scattered Clouds,190,2013-10-31 18:55:00
3:15 PM,57.2,53.6,88,30.06,10.0,South,13.8,20.7,N/A,,Scattered Clouds,190,2013-10-31 19:15:00
3:35 PM,57.2,53.6,88,30.05,10.0,SSW,12.7,20.7,N/A,,Scattered Clouds,200,2013-10-31 19:35:00
3:55 PM,57.2,51.8,82,30.05,10.0,SSW,13.8,25.3,N/A,,Mostly Cloudy,200,2013-10-31 19:55:00
4:15 PM,55.4,51.8,88,30.05,10.0,SSW,15.0,28.8,N/A,Rain,Rain,200,2013-10-31 20:15:00
4:35 PM,55.4,51.8,88,30.05,10.0,SSW,15.0,21.9,N/A,,Drizzle,200,2013-10-31 20:35:00
4:55 PM,53.6,51.8,94,30.03,10.0,SSW,11.5,20.7,0.01,Rain,Light Rain,200,2013-10-31 20:55:00
5:15 PM,53.6,51.8,94,30.02,10.0,South,15.0,20.7,0.01,,Drizzle,190,2013-10-31 21:15:00
5:35 PM,53.6,51.8,94,30.02,10.0,South,13.8,21.9,0.01,,Light Drizzle,190,2013-10-31 21:35:00
5:55 PM,53.6,51.8,94,30.03,10.0,SSW,12.7,18.4,N/A,,Mostly Cloudy,210,2013-10-31 21:55:00
6:15 PM,53.6,51.8,94,30.01,10.0,South,9.2,18.4,N/A,,Mostly Cloudy,180,2013-10-31 22:15:00
6:35 PM,53.6,51.8,94,30.01,10.0,South,8.1,-,N/A,,Mostly Cloudy,180,2013-10-31 22:35:00
6:55 PM,53.6,51.8,94,30.01,10.0,SSW,16.1,21.9,N/A,,Mostly Cloudy,200,2013-10-31 22:55:00
7:15 PM,53.6,51.8,94,29.99,10.0,South,11.5,19.6,N/A,,Mostly Cloudy,180,2013-10-31 23:15:00
7:35 PM,53.6,51.8,94,30.00,10.0,SSW,10.4,16.1,N/A,,Mostly Cloudy,200,2013-10-31 23:35:00
7:55 PM,53.6,51.8,94,30.00,10.0,South,16.1,24.2,N/A,,Overcast,190,2013-10-31 23:55:00
8:15 PM,53.6,51.8,94,29.98,10.0,South,9.2,20.7,N/A,,Overcast,180,2013-11-01 00:15:00
8:35 PM,53.6,51.8,94,29.98,10.0,SSW,12.7,18.4,N/A,,Mostly Cloudy,210,2013-11-01 00:35:00
8:55 PM,53.6,51.8,94,29.98,10.0,SSW,13.8,21.9,N/A,,Overcast,200,2013-11-01 00:55:00
9:15 PM,53.6,51.8,94,29.96,10.0,SSW,15.0,19.6,N/A,,Overcast,200,2013-11-01 01:15:00
9:35 PM,53.6,53.6,100,29.95,7.0,South,16.1,23.0,N/A,,Overcast,190,2013-11-01 01:35:00
9:55 PM,53.6,53.6,100,29.94,10.0,South,13.8,23.0,N/A,,Mostly Cloudy,190,2013-11-01 01:55:00
10:15 PM,53.6,53.6,100,29.92,10.0,South,16.1,23.0,N/A,,Overcast,190,2013-11-01 02:15:00
10:35 PM,53.6,53.6,100,29.90,5.0,South,15.0,25.3,N/A,,Overcast,170,2013-11-01 02:35:00
10:55 PM,53.6,53.6,100,29.89,3.0,South,12.7,23.0,N/A,,Overcast,170,2013-11-01 02:55:00
11:15 PM,53.6,53.6,100,29.90,3.0,South,13.8,21.9,N/A,,Overcast,180,2013-11-01 03:15:00
11:35 PM,53.6,53.6,100,29.85,7.0,South,13.8,26.5,N/A,,Drizzle,170,2013-11-01 03:35:00
11:55 PM,53.6,53.6,100,29.86,1.8,South,20.7,29.9,N/A,Rain,Light Rain,190,2013-11-01 03:55:00